Wichita, KS

6:24 PM CST on January 19, 2017 (GMT -0600)
Col Jabara

Weather History for KAAO - November, 2012

Change the Weather History Date:

Saturday, November 3, 2012

  Actual Average (KIAB) Record (KIAB)
Temperature  
Mean Temperature 49 °F -  
Max Temperature 62 °F 58 °F 77 °F (2005)
Min Temperature 37 °F 40 °F 28 °F (2006)
Degree Days  
Heating Degree Days 16    
Moisture  
Dew Point 33 °F    
Average Humidity 56    
Maximum Humidity 79    
Minimum Humidity 36    
Precipitation  
Precipitation 0.00 in - - ()
Sea Level Pressure  
Sea Level Pressure 30.15 in    
Wind  
Wind Speed 12 mph (North)    
Max Wind Speed 20 mph    
Max Gust Speed 22 mph    
Visibility 10 miles    
Events      
Averages and records for this station are not official NWS values.
T = Trace of Precipitation, MM = Missing Value Source: NWS Daily Summary

Daily Weather History Graph

Daily Weather History Graph

Search for Another Location

Airport or City:

Trip Planner

Search our weather history database for the weather conditions in past years. The results will help you decide how hot, cold, wet, or windy it might be!

Date:

Astronomy

Nov. 03, 2012 Rise Set
Actual Time 7:56 AM CDT 6:27 PM CDT
Civil Twilight 7:29 AM CDT 6:54 PM CDT
Nautical Twilight 6:58 AM CDT 7:25 PM CDT
Astronomical Twilight 6:27 AM CDT 7:56 PM CDT
Moon 10:11 PM CDT (11/3) 12:00 PM CDT (11/3)
Length of Visible Light 11h 25m
Length of Day
10h 30m
Waning Gibbous, 80% of the Moon is Illuminated
Nov 3
Waning Gibbous
Nov 6
Last Quarter
Nov 13
New
Nov 20
First Quarter
Nov 28
Full

Hourly Weather History & Observations

Time (CDT) Temp. Windchill Dew Point Humidity Pressure Visibility Wind Dir Wind Speed Gust Speed Precip Events Conditions
12:54 AM 50.0 °F - 35.1 °F 57% 29.99 in 10.0 mi North 15.0 mph - N/A   Clear
1:54 AM 46.9 °F - 33.1 °F 59% 30.01 in 10.0 mi North 19.6 mph - N/A   Clear
3:54 AM 44.1 °F 37.1 °F 30.9 °F 60% 30.04 in 10.0 mi North 15.0 mph - N/A   Clear
4:54 AM 42.1 °F 34.5 °F 32.0 °F 67% 30.07 in 10.0 mi NNW 15.0 mph - N/A   Clear
5:54 AM 41.0 °F 33.9 °F 30.9 °F 67% 30.10 in 10.0 mi NNW 12.7 mph - N/A   Clear
6:54 AM 39.0 °F 32.3 °F 30.9 °F 73% 30.13 in 10.0 mi NNW 10.4 mph - N/A   Clear
7:54 AM 37.0 °F 29.3 °F 30.9 °F 79% 30.15 in 10.0 mi North 11.5 mph - N/A   Clear
8:54 AM 39.9 °F 33.4 °F 30.9 °F 70% 30.19 in 10.0 mi North 10.4 mph - N/A   Clear
9:54 AM 45.0 °F 37.6 °F 32.0 °F 60% 30.19 in 10.0 mi North 17.3 mph 21.9 mph N/A   Clear
10:54 AM 48.9 °F - 32.0 °F 52% 30.21 in 10.0 mi North 11.5 mph - N/A   Clear
11:54 AM 52.0 °F - 33.1 °F 49% 30.22 in 10.0 mi North 10.4 mph - N/A   Clear
12:54 PM 55.9 °F - 34.0 °F 44% 30.20 in 10.0 mi North 10.4 mph - N/A   Clear
1:54 PM 61.0 °F - 34.0 °F 36% 30.17 in 10.0 mi North 11.5 mph 16.1 mph N/A   Clear
2:54 PM 60.1 °F - 34.0 °F 38% 30.17 in 10.0 mi NE 12.7 mph - N/A   Clear
3:54 PM 59.0 °F - 34.0 °F 39% 30.17 in 10.0 mi North 10.4 mph - N/A   Clear
4:54 PM 57.9 °F - 35.1 °F 42% 30.17 in 10.0 mi NNE 5.8 mph - N/A   Clear
5:54 PM 55.9 °F - 35.1 °F 45% 30.17 in 10.0 mi North 8.1 mph - N/A   Clear
6:54 PM 53.1 °F - 35.1 °F 50% 30.18 in 10.0 mi North 4.6 mph - N/A   Clear
7:54 PM 51.1 °F - 35.1 °F 54% 30.20 in 10.0 mi North 4.6 mph - N/A   Clear
8:54 PM 50.0 °F - 35.1 °F 57% 30.20 in 10.0 mi North 3.5 mph - N/A   Clear
9:54 PM 48.9 °F - 35.1 °F 59% 30.21 in 10.0 mi North 4.6 mph - N/A   Clear
10:54 PM 46.9 °F - 35.1 °F 63% 30.21 in 10.0 mi North 5.8 mph - N/A   Clear
11:54 PM 46.0 °F 43.1 °F 35.1 °F 66% 30.21 in 10.0 mi North 5.8 mph - N/A   Clear